Location: Caltech
(34.1382°N, 118.1253°W)
Time: 19:54:22
(UTC-07:00)

Cosmos 1125 Rocket - Visible Passes

Search period start: 25 October 2014 00:00
Search period end: 03 November 2014 23:00
Orbit: 759 x 781 km, 74.0° (Epoch: 25 October)

Date Brightness Start Highest point End Pass type
(mag) Time Alt. Az. Time Alt. Az. Time Alt. Az.
25 Oct 6.3 03:42:56 13° NE 03:43:45 13° ENE 03:46:09 10° E visible
25 Oct 3.4 05:23:24 26° NNW 05:26:18 66° WSW 05:31:30 10° S visible
25 Oct 6.3 19:57:44 10° W 20:00:23 14° WNW 20:03:02 10° NNW visible
26 Oct 3.7 04:49:51 70° ENE 04:49:54 70° ENE 04:55:08 10° SSE visible
26 Oct 5.3 06:30:21 10° W 06:31:17 10° W 06:32:13 10° WSW visible
26 Oct 5.8 19:19:32 10° WSW 19:23:40 24° WNW 19:27:49 10° N visible
27 Oct 5.5 04:16:05 23° ESE 04:16:05 23° ESE 04:18:18 10° SE visible
27 Oct 5.0 05:56:31 18° WSW 05:56:31 18° WSW 05:58:52 10° SW visible
27 Oct 4.9 18:42:12 10° SW 18:47:04 41° WNW 18:51:58 10° N visible
28 Oct 5.4 05:22:33 16° SSW 05:22:33 16° SSW 05:23:40 10° SSW visible
29 Oct 6.3 19:14:09 10° W 19:16:41 14° WNW 19:19:14 10° NNW visible
30 Oct 5.9 18:35:52 10° WSW 18:39:57 23° WNW 18:44:04 10° NNW visible
02 Nov 6.2 17:30:32 10° W 17:32:58 13° WNW 17:35:25 10° NNW visible
